SES-5                   
1 38652U 12036A   19261.16785774  .00000030  00000-0  00000+0 0  9992
2 38652   0.0517 109.2554 0002037  67.0468 245.9213  1.00272761 26367
BREEZE-M R/B            
1 38653U 12036B   19261.46441637 -.00000062  00000-0  00000+0 0  9999
2 38653  23.3884  63.8074 6104670 176.9496 190.1633  2.17152630 57056
BREEZE-M DEB [TANK]     
1 38654U 12036C   19260.44886873  .00000404  00000-0  12993-3 0  9999
2 38654  49.6555 308.6751 5159424 304.4684  17.0399  5.32606008138552